DW2612 Weather Reports


Display with metric or nautical units.
time (UTC)temp
F
wind
direction
speed
MPH
gust
MPH
rain 1hr
in
rain 24hr
in
rain mn
in
humidity
%
barometer
mb
20260506235021 53 298 0.0 0.0 0.00 1.44 1.44 94
20260506233524 53 298 0.0 0.0 0.00 1.44 1.44 94
20260506232027 53 298 0.0 0.0 0.00 1.44 1.44 94
20260506230531 53 298 0.0 0.0 0.00 1.44 1.44 94
20260506225035 53 298 0.0 0.0 0.00 1.44 1.44 94
20260506223517 53 298 0.0 0.0 0.00 1.44 1.44 94
20260506222016 53 298 0.0 0.0 0.00 1.44 1.44 94
20260506220523 53 298 0.0 0.0 0.00 1.44 1.44 94
20260506215019 53 298 0.0 0.0 0.00 1.44 1.44 94
20260506213524 53 298 0.0 0.0 0.00 1.44 1.44 94
20260506212022 53 298 0.0 0.0 0.00 1.44 1.44 94
20260506210546 53 299 0.0 0.0 0.00 1.44 1.44 94
20260506205028 52 217 0.0 0.0 0.01 1.44 1.44 94
20260506203529 52 216 0.0 0.0 0.01 1.44 1.44 94
20260506202046 52 219 0.0 0.0 0.02 1.44 1.44 94
20260506200533 52 296 0.0 0.0 0.05 1.44 1.44 94
20260506195047 52 296 0.0 0.0 0.06 1.43 1.43 94
20260506193530 52 296 0.0 0.0 0.10 1.43 1.43 94
20260506192035 52 296 0.0 0.0 0.10 1.42 1.42 94
20260506190521 51 296 0.0 0.0 0.08 1.39 1.39 94
20260506185026 51 296 0.0 0.0 0.07 1.37 1.37 94
20260506183529 51 296 0.0 0.0 0.04 1.33 1.33 94
20260506182047 51 296 0.0 0.0 0.03 1.32 1.32 93
20260506180549 51 296 0.0 0.0 0.02 1.31 1.31 94
20260506175020 51 296 0.0 0.0 0.01 1.30 1.30 94
20260506173519 51 296 0.0 0.0 0.00 1.29 1.29 94
20260506172040 51 296 0.0 0.0 0.00 1.29 1.29 94
20260506170541 51 296 0.0 0.0 0.00 1.29 1.29 94
20260506165017 51 296 0.0 0.0 0.00 1.29 1.29 94
20260506163520 51 296 0.0 0.0 0.00 1.29 1.29 94
20260506162035 51 296 0.0 0.0 0.00 1.29 1.29 94
20260506160554 51 305 0.0 0.0 0.00 1.29 1.29 94
20260506155051 51 305 0.0 0.0 0.00 1.30 1.29 94
20260506153529 50 305 0.0 0.0 0.00 1.30 1.29 94
20260506152025 50 305 0.0 0.0 0.00 1.30 1.29 94
20260506150529 50 306 0.0 0.0 0.00 1.30 1.29 94
20260506145024 50 69 0.0 0.0 0.00 1.30 1.29 94
20260506143546 50 69 0.0 0.0 0.00 1.30 1.29 94
20260506142026 49 284 0.0 0.0 0.01 1.30 1.29 94
20260506140528 49 286 0.0 0.0 0.01 1.30 1.29 94
20260506135025 49 284 0.0 0.0 0.01 1.32 1.29 94
20260506133526 49 317 0.0 0.0 0.05 1.32 1.29 94
20260506132025 49 325 0.0 0.0 0.24 1.31 1.28 94
20260506130530 49 5 0.0 0.0 0.38 1.31 1.28 94
20260506125028 49 5 0.0 0.0 0.66 1.31 1.27 94
20260506123532 49 9 0.0 0.0 0.80 1.27 1.23 93
20260506122027 49 348 0.0 0.0 0.61 1.08 1.04 93
20260506120527 49 348 0.0 0.0 0.47 0.94 0.90 93
20260506115026 49 344 0.0 0.0 0.14 0.76 0.57 93
20260506113527 50 321 0.0 0.0 0.01 0.62 0.43 93
20260506012047 69 5 0.0 0.0 0.00 0.25 0.25 94
20260506010529 69 5 0.0 0.0 0.00 0.25 0.25 94
20260506005025 69 5 0.0 0.0 0.00 0.25 0.25 94
20260506003527 69 5 0.0 0.0 0.00 0.25 0.25 94
20260506002026 69 360 0.0 0.0 0.00 0.25 0.25 94
20260506000526 69 360 0.0 0.0 0.00 0.25 0.25 94